Weather observations for the past three days for
West Bend Municipal Airport
Imperial (Metric)
Date Time (cdt) Wind (mph) Vis. (mi.) Weather Sky Cond. Temperature (ºF) Relative Humidity Wind Chill (°F) Heat Index (°F) Pressure Precipitation (in)
Air Dwpt 6 hour altimeter (in) sea level (mb) 1 hr 3 hr 6 hr
Max. Min.
15 11:55 W 9 10.00 Mostly Cloudy BKN030 BKN035 BKN043 82.4 71.6 70% 87 29.86 0.0
15 11:35 W 9 10.00 Mostly Cloudy SCT030 BKN036 BKN046 82.4 73.4 74% 88 29.86 0.0
15 11:15 SW 6 10.00 Partly Cloudy SCT044 SCT050 82.4 71.6 70% 87 29.86 0.0
15 10:55 SW 7 10.00 Fair CLR 82.4 73.4 74% 88 29.86 0.0
15 10:35 W 8 10.00 Fair CLR 82.4 73.4 74% 88 29.86 0.0
15 10:15 W 6 10.00 Fair CLR 80.6 73.4 79% 85 29.85 0.0
15 09:55 Calm 10.00 Fair CLR 80.6 73.4 79% 85 29.84 0.0
15 09:35 W 6 10.00 Fair CLR 78.8 73.4 84% 82 29.84 0.0
15 09:15 W 5 10.00 Fair CLR 77 71.6 83% 78 29.84 0.0
15 08:55 Calm 10.00 Fair CLR 77 71.6 83% 78 29.84 0.0
15 08:35 Calm 10.00 Fair CLR 75.2 69.8 83% 75 29.85 0.0
15 08:15 W 7 10.00 Fair CLR 73.4 69.8 89% 29.85 0.0
15 07:55 W 3 10.00 Fair CLR 73.4 69.8 89% 29.85 0.0
15 07:35 Calm 10.00 Fair CLR 73.4 69.8 89% 29.85 0.0
15 07:15 Calm 10.00 Fair CLR 71.6 68 88% 29.85 0.0
15 06:55 SW 5 10.00 Partly Cloudy SCT027 SCT039 SCT049 71.6 68 88% 29.85 0.0
15 06:35 W 5 10.00 Partly Cloudy SCT027 69.8 68 94% 29.85 0.0
15 06:15 W 5 10.00 Fair CLR 69.8 66.2 88% 29.85 0.0
15 05:55 Calm 10.00 Mostly Cloudy BKN017 68 66.2 94% 29.85 0.0
15 05:35 SW 3 10.00 Mostly Cloudy BKN017 68 66.2 94% 29.85 0.0
15 05:15 SW 5 10.00 Partly Cloudy SCT017 SCT029 68 68 100% 29.85 0.0
15 04:55 W 7 10.00 Fair CLR 69.8 68 94% 29.85 0.0
15 04:35 W 3 10.00 Fair CLR 69.8 66.2 88% 29.85 0.0
15 04:15 W 6 10.00 Fair CLR 69.8 68 94% 29.84 0.0
15 03:55 W 8 10.00 Partly Cloudy SCT050 SCT065 69.8 68 94% 29.84 0.0
15 03:35 W 3 10.00 Overcast SCT028 BKN035 OVC070 69.8 68 94% 29.84 0.0
15 03:15 W 3 10.00 Overcast SCT022 OVC034 69.8 68 94% 29.84 0.0
15 02:55 Calm 10.00 Overcast BKN022 OVC029 69.8 68 94% 29.84 0.0
15 02:35 W 3 10.00 Overcast OVC024 69.8 68 94% 29.84 0.0
15 02:15 Calm 10.00 Mostly Cloudy BKN026 69.8 68 94% 29.83 0.0
15 01:55 W 5 10.00 Partly Cloudy SCT030 69.8 68 94% 29.82 0.0
15 01:35 Calm 10.00 Partly Cloudy SCT027 SCT032 69.8 68 94% 29.83 0.0
15 01:15 SW 5 10.00 Fair CLR 69.8 69.8 100% 29.83 0.0
15 00:55 SW 8 10.00 Fair CLR 69.8 69.8 100% 29.83 0.0 0.02
15 00:35 S 8 10.00 Partly Cloudy SCT060 SCT070 SCT085 69.8 69.8 100% 29.84 0.0 0.02
15 00:15 SW 6 7.00 Rain SCT040 BKN070 OVC085 69.8 69.8 100% 29.85 0.0 0.02
14 23:55 S 5 10.00 Mostly Cloudy SCT035 BKN075 BKN100 71.6 69.8 94% 29.84 0.0 0.06
14 23:35 S 8 7.00 Light Rain SCT011 BKN044 OVC110 71.6 69.8 94% 29.85 0.0 0.06
14 23:15 SW 8 10.00 Light Rain SCT011 BKN024 BKN043 73.4 71.6 94% 29.85 0.0
14 22:55 Calm 10.00 Mostly Cloudy SCT023 SCT060 BKN085 73.4 73.4 100% 29.85 0.0
14 22:35 E 3 10.00 Partly Cloudy SCT050 75.2 73.4 94% 74 29.83 0.0
14 22:15 Calm 10.00 Overcast SCT044 OVC050 75.2 73.4 94% 74 29.86 0.0
14 21:55 Calm 10.00 Overcast SCT044 OVC050 77 73.4 89% 78 29.86 0.0 0.02
14 21:35 S 5 10.00 Light Rain SCT046 BKN050 OVC100 75.2 73.4 94% 74 29.87 0.0 0.02
14 21:15 W 5 10.00 Rain SCT049 BKN070 BKN100 77 73.4 89% 78 29.84 0.0
14 20:55 Calm 10.00 Overcast OVC049 77 73.4 89% 78 29.83 0.0
14 20:35 Calm 10.00 Overcast OVC049 78.8 73.4 84% 82 29.84 0.0
14 20:15 Calm 10.00 Overcast OVC049 78.8 73.4 84% 82 29.84 0.0
14 19:55 Calm 10.00 Overcast OVC049 78.8 73.4 84% 82 29.85 0.0
14 19:35 Calm 10.00 Overcast OVC049 78.8 73.4 84% 82 29.85 0.0
14 19:15 S 3 10.00 Mostly Cloudy BKN049 80.6 73.4 79% 85 29.86 0.0
14 18:55 SW 7 10.00 Partly Cloudy SCT049 80.6 73.4 79% 85 29.87 0.0
14 18:35 SW 8 10.00 Overcast SCT030 SCT034 OVC047 80.6 73.4 79% 85 29.87 0.0
14 18:15 SW 7 10.00 Mostly Cloudy SCT030 SCT040 BKN045 82.4 71.6 70% 87 29.88 0.0
14 17:55 SW 9 10.00 Partly Cloudy SCT034 SCT045 82.4 71.6 70% 87 29.88 0.0
14 17:35 SW 6 10.00 Mostly Cloudy SCT034 BKN043 82.4 73.4 74% 88 29.88 0.0
14 17:15 SW 6 10.00 Partly Cloudy SCT040 82.4 71.6 70% 87 29.88 0.0
14 16:55 SW 8 10.00 Fair CLR 84.2 69.8 62% 88 29.88 0.0
14 16:35 SW 8 10.00 Fair CLR 86 69.8 59% 91 29.87 0.0
14 16:15 S 5 10.00 Fair CLR 86 69.8 59% 91 29.87 0.0
14 15:55 SW 5 10.00 Fair CLR 86 69.8 59% 91 29.87 0.0
14 15:35 Calm 10.00 Fair CLR 86 68 55% 89 29.87 0.0
14 15:15 W 6 10.00 Fair CLR 84.2 68 58% 87 29.88 0.0
14 14:55 W 8 10.00 Fair CLR 84.2 69.8 62% 88 29.89 0.0
14 14:35 W 7 10.00 Fair CLR 82.4 68 62% 85 29.89 0.0
14 14:15 W 6 G 16 10.00 Fair CLR 82.4 69.8 66% 86 29.9 0.0
14 13:55 W 12 G 17 10.00 Fair CLR 80.6 68 66% 83 29.9 0.0
14 13:35 W 10 10.00 Fair CLR 80.6 68 66% 83 29.9 0.0
14 13:15 W 9 10.00 Fair CLR 80.6 68 66% 83 29.91 0.0
14 12:55 W 12 10.00 Fair CLR 80.6 68 66% 83 29.92 0.0
14 12:35 W 9 10.00 Fair CLR 80.6 69.8 70% 84 29.92 0.0
14 12:15 W 9 10.00 Fair CLR 78.8 68 70% 81 29.92 0.0
14 11:55 W 6 10.00 Fair CLR 78.8 68 70% 81 29.92 0.0
14 11:35 W 7 10.00 Fair CLR 77 68 74% 79 29.92 0.0
14 11:15 NW 3 10.00 Fair CLR 77 68 74% 79 29.92 0.0
14 10:55 W 3 10.00 Fair CLR 75.2 68 78% 76 29.91 0.0
14 10:35 SW 10 10.00 Fair CLR 73.4 68 83% 29.88 0.0
14 10:15 SW 9 10.00 Fair CLR 73.4 68 83% 29.88 0.0
14 09:55 S 9 10.00 Fair CLR 71.6 68 88% 29.87 0.0
14 09:35 SW 10 10.00 Fair CLR 71.6 68 88% 29.86 0.0
14 09:15 SW 7 10.00 Fair CLR 69.8 68 94% 29.85 0.0
14 08:55 SW 7 10.00 Partly Cloudy SCT022 SCT034 SCT050 68 64.4 88% 29.85 0.0 0.03
14 08:35 E 13 10.00 Light Rain SCT037 BKN050 OVC090 66.2 64.4 94% 29.83 0.0 0.02
14 08:15 Calm 10.00 Light Rain SCT048 BKN075 OVC100 64.4 64.4 100% 29.91 0.0 0.01
14 07:55 W 6 7.00 Rain BKN070 BKN075 OVC090 64.4 64.4 100% 29.95 0.0 0.13
14 07:35 W 10 G 17 10.00 Rain SCT041 SCT060 OVC090 66.2 64.4 94% 29.97 0.0 0.07
14 07:15 W 15 G 21 10.00 Rain SCT013 BKN070 OVC090 66.2 64.4 94% 29.98 0.0 0.01
14 06:55 W 15 G 23 5.00 Light Rain SCT008 BKN020 OVC029 68 68 100% 30 0.0 0.01
14 06:35 SW 3 10.00 Overcast OVC020 68 66.2 94% 29.98 0.0
14 06:15 W 3 10.00 Overcast OVC023 66.2 66.2 100% 29.98 0.0
14 05:55 NW 7 G 16 10.00 Overcast BKN025 OVC041 66.2 66.2 100% 29.99 0.0
14 05:35 Calm 10.00 Mostly Cloudy SCT039 BKN055 64.4 64.4 100% 29.98 0.0
14 05:15 SW 3 10.00 Fair CLR 64.4 64.4 100% 29.97 0.0
14 04:55 Calm 10.00 Fair CLR 64.4 64.4 100% 29.97 0.0
14 04:35 SW 3 10.00 Fair CLR 66.2 64.4 94% 29.96 0.0
14 04:15 SW 6 10.00 Fair CLR 66.2 64.4 94% 29.96 0.0
14 03:55 W 5 10.00 Fair CLR 66.2 64.4 94% 29.96 0.0
14 03:35 W 5 10.00 Fair CLR 64.4 64.4 100% 29.96 0.0
14 03:15 Calm 10.00 Fair CLR 64.4 64.4 100% 29.93 0.0
14 02:55 Calm 10.00 Fair CLR 64.4 64.4 100% 29.95 0.0
14 02:35 S 5 10.00 Fair CLR 64.4 64.4 100% 29.93 0.0
14 02:15 SW 3 10.00 Fair CLR 64.4 64.4 100% 29.96 0.0
14 01:55 S 6 10.00 Fair CLR 66.2 64.4 94% 29.95 0.0
14 01:35 SW 7 10.00 Fair CLR 66.2 64.4 94% 29.97 0.0
14 01:15 SW 7 10.00 Partly Cloudy SCT100 66.2 66.2 100% 29.98 0.0
14 00:55 SW 5 10.00 Partly Cloudy SCT110 66.2 66.2 100% 29.99 0.0
14 00:35 SW 3 10.00 Fair CLR 66.2 66.2 100% 29.99 0.0
14 00:15 Calm 10.00 Partly Cloudy SCT100 66.2 66.2 100% 30 0.0
13 23:55 SW 7 10.00 Light Rain SCT100 66.2 66.2 100% 30 0.0 0.01
13 23:35 SW 5 10.00 Partly Cloudy SCT090 66.2 66.2 100% 30 0.0 0.01
13 23:15 SW 8 10.00 Light Rain OVC090 66.2 66.2 100% 30.01 0.0 0.01
13 22:55 E 6 10.00 Rain SCT065 OVC090 66.2 66.2 100% 29.99 0.0 0.13
13 22:35 Calm 5.00 Rain SCT049 SCT065 OVC075 66.2 66.2 100% 30.03 0.0 0.1
13 22:15 W 3 7.00 Heavy Rain SCT047 BKN060 OVC085 66.2 66.2 100% 30.06 0.0 0.05
13 21:55 SW 10 7.00 Rain SCT008 BKN055 OVC070 66.2 66.2 100% 30.07 0.0 0.39
13 21:35 W 7 10.00 Rain SCT008 BKN032 OVC070 64.4 64.4 100% 30.08 0.0 0.35
13 21:15 NW 3 3.00 Heavy Rain SCT008 BKN015 OVC030 66.2 64.4 94% 30.09 0.0 0.29
13 20:55 W 14 G 33 2.50 Heavy Rain SCT008 SCT018 BKN031 68 66.2 94% 30.1 0.0 0.14
13 20:35 SW 5 10.00 Fair CLR 75.2 69.8 83% 75 30.03 0.0
13 20:15 SE 3 10.00 Fair CLR 77 69.8 79% 79 30 0.0
13 19:55 S 3 10.00 Fair CLR 77 69.8 79% 79 30.01 0.0
13 19:35 SE 3 10.00 Fair CLR 77 69.8 79% 79 30 0.0
13 19:15 SE 6 10.00 Fair CLR 78.8 68 70% 81 30 0.0
13 18:55 SE 10 10.00 Partly Cloudy SCT045 78.8 68 70% 81 30.01 0.0
13 18:35 SE 12 10.00 Partly Cloudy SCT045 SCT060 SCT070 80.6 68 66% 83 30.02 0.0
13 18:15 SE 8 10.00 Partly Cloudy SCT060 SCT075 SCT090 78.8 68 70% 81 30.04 0.0
13 17:55 SE 8 10.00 Partly Cloudy SCT050 80.6 68 66% 83 30.04 0.0
13 17:35 SE 7 10.00 Fair CLR 78.8 69.8 74% 81 30.04 0.0
13 17:15 SE 10 10.00 Fair CLR 80.6 69.8 70% 84 30.03 0.0
13 16:55 SE 8 10.00 Partly Cloudy SCT047 80.6 69.8 70% 84 30.04 0.0
13 16:35 SE 10 10.00 Partly Cloudy SCT038 SCT047 82.4 69.8 66% 86 30.05 0.0
13 16:15 SE 9 10.00 Fair CLR 82.4 69.8 66% 86 30.06 0.0
13 15:55 SE 10 10.00 Mostly Cloudy SCT039 SCT046 BKN060 80.6 69.8 70% 84 30.07 0.0
13 15:35 SE 13 10.00 Overcast BKN039 OVC060 82.4 69.8 66% 86 30.08 0.0
13 15:15 S 8 10.00 Overcast BKN039 BKN049 OVC070 82.4 68 62% 85 30.09 0.0
13 14:55 SW 8 10.00 Mostly Cloudy SCT041 BKN048 BKN055 84.2 68 58% 87 30.1 0.0
13 14:35 S 8 10.00 Overcast BKN043 BKN050 OVC075 82.4 68 62% 85 30.1 0.0
13 14:15 SW 8 10.00 Mostly Cloudy BKN045 BKN050 BKN075 82.4 66.2 58% 85 30.11 0.0
13 13:55 SW 8 10.00 Overcast OVC043 82.4 66.2 58% 85 30.11 0.0
13 13:35 S 8 G 16 10.00 Mostly Cloudy BKN043 BKN080 82.4 66.2 58% 85 30.11 0.0
13 13:15 S 6 10.00 Mostly Cloudy SCT043 BKN090 82.4 64.4 55% 84 30.11 0.0
13 12:55 S 9 10.00 Partly Cloudy SCT040 SCT090 82.4 64.4 55% 84 30.12 0.0
13 12:35 S 7 10.00 Partly Cloudy SCT041 SCT090 82.4 64.4 55% 84 30.13 0.0
13 12:15 S 7 10.00 Partly Cloudy SCT041 82.4 64.4 55% 84 30.13 0.0
13 11:55 SW 9 10.00 Partly Cloudy SCT041 80.6 64.4 58% 82 30.14 0.0
13 11:35 S 7 10.00 Partly Cloudy SCT041 80.6 62.6 54% 82 30.14 0.0
13 11:15 S 8 10.00 Fair CLR 80.6 62.6 54% 82 30.15 0.0
13 10:55 S 7 10.00 Fair CLR 80.6 62.6 54% 82 30.14 0.0
13 10:35 S 8 10.00 Fair CLR 80.6 60.8 51% 81 30.15 0.0
13 10:15 S 8 10.00 Fair CLR 78.8 60.8 54% 80 30.15 0.0
13 09:55 S 5 10.00 Fair CLR 78.8 59 51% 80 30.15 0.0
13 09:35 S 8 10.00 Fair CLR 78.8 59 51% 80 30.16 0.0
13 09:15 SW 7 10.00 Fair CLR 77 60.8 57% 79 30.17 0.0
13 08:55 SW 3 10.00 Fair CLR 75.2 62.6 65% 77 30.17 0.0
13 08:35 S 3 10.00 Fair CLR 73.4 60.8 65% 30.17 0.0
13 08:10 S 3 10.00 Fair CLR 71.6 64.4 78% 30.17 0.0
13 07:55 Calm 10.00 Fair CLR 69.8 64.4 83% 30.17 0.0
13 07:35 Calm 10.00 Fair CLR 66.2 62.6 88% 30.16 0.0
13 07:15 Calm 10.00 Fair CLR 62.6 60.8 94% 30.16 0.0
13 06:55 Calm 10.00 Fair CLR 60.8 60.8 100% 30.16 0.0
13 06:35 Calm 10.00 Fair CLR 59 59 100% 30.16 0.0
13 06:15 Calm 10.00 Fair CLR 57.2 57.2 100% 30.16 0.0
13 05:55 Calm 10.00 Fair CLR 55.4 55.4 100% 30.16 0.0
13 05:35 Calm 10.00 Fair CLR 57.2 57.2 100% 30.16 0.0
13 05:15 Calm 10.00 Fair CLR 57.2 57.2 100% 30.16 0.0
13 04:55 Calm 10.00 Fair CLR 57.2 57.2 100% 30.16 0.0
13 04:35 Calm 10.00 Fair CLR 57.2 57.2 100% 30.16 0.0
13 04:15 Calm 10.00 Fair CLR 59 59 100% 30.15 0.0
13 03:55 Calm 2.50 Fog/Mist CLR 57.2 57.2 100% 30.15 0.0
13 03:35 Calm 10.00 Fair CLR 59 59 100% 30.15 0.0
13 03:15 Calm 10.00 Fair CLR 59 59 100% 30.15 0.0
13 02:55 Calm 10.00 Fair CLR 59 59 100% 30.14 0.0
13 02:35 Calm 10.00 Fair CLR 59 59 100% 30.14 0.0
13 02:15 Calm 10.00 Fair CLR 59 59 100% 30.15 0.0
13 01:55 Calm 5.00 Fog/Mist CLR 60.8 60.8 100% 30.15 0.0
13 01:35 Calm 10.00 Fair CLR 60.8 60.8 100% 30.15 0.0
13 01:15 Calm 10.00 Fair CLR 60.8 59 94% 30.15 0.0
13 00:55 Calm 10.00 Fair CLR 60.8 59 94% 30.15 0.0
13 00:35 Calm 10.00 Fair CLR 60.8 60.8 100% 30.16 0.0
13 00:15 Calm 10.00 Fair CLR 62.6 60.8 94% 30.16 0.0
12 23:55 Calm 10.00 Fair CLR 62.6 59 88% 30.15 0.0
12 23:35 Calm 10.00 Fair CLR 62.6 60.8 94% 30.15 0.0
12 23:15 Calm 10.00 Fair CLR 64.4 62.6 94% 30.13 0.0
12 22:55 Calm 10.00 Fair CLR 64.4 60.8 88% 30.13 0.0
12 22:35 Calm 10.00 Fair CLR 64.4 60.8 88% 30.13 0.0
12 22:15 Calm 10.00 Fair CLR 66.2 59 78% 30.13 0.0
12 21:55 Calm 10.00 Fair CLR 66.2 60.8 83% 30.13 0.0
12 21:35 Calm 10.00 Fair CLR 68 60.8 78% 30.13 0.0
12 21:15 Calm 10.00 Fair CLR 68 59 73% 30.13 0.0
12 20:55 Calm 10.00 Fair CLR 69.8 59 69% 30.13 0.0
12 20:35 Calm 10.00 Fair CLR 71.6 57.2 61% 30.13 0.0
12 20:15 Calm 10.00 Fair CLR 73.4 53.6 50% 30.13 0.0
12 19:55 Calm 10.00 Fair CLR 75.2 53.6 47% 78 30.13 0.0
12 19:35 Calm 10.00 Fair CLR 77 53.6 44% 78 30.13 0.0
12 19:15 Calm 10.00 Fair CLR 77 53.6 44% 78 30.12 0.0
12 18:55 SE 5 10.00 Fair CLR 78.8 53.6 42% 79 30.11 0.0
12 18:35 SE 3 10.00 Fair CLR 78.8 57.2 48% 80 30.11 0.0
12 18:15 SE 6 10.00 Fair CLR 78.8 55.4 45% 79 30.1 0.0
12 17:55 SE 6 10.00 Fair CLR 80.6 55.4 42% 81 30.1 0.0
12 17:35 SE 6 10.00 Fair CLR 80.6 55.4 42% 81 30.1 0.0
12 17:15 SE 7 10.00 Fair CLR 80.6 53.6 39% 80 30.11 0.0
12 16:55 SE 6 10.00 Fair CLR 80.6 53.6 39% 80 30.1 0.0
12 16:35 SE 7 10.00 Fair CLR 80.6 53.6 39% 80 30.1 0.0
12 16:15 SE 9 10.00 Fair CLR 80.6 53.6 39% 80 30.1 0.0
12 15:55 SE 8 10.00 Fair CLR 80.6 55.4 42% 81 30.11 0.0
12 15:35 Calm 10.00 Fair CLR 82.4 57.2 42% 82 30.11 0.0
12 15:15 S 3 10.00 Fair CLR 82.4 55.4 40% 82 30.11 0.0
12 14:55 S 5 10.00 Fair CLR 82.4 55.4 40% 82 30.12 0.0
12 14:35 SE 3 10.00 Fair CLR 82.4 55.4 40% 82 30.12 0.0
12 14:15 S 5 10.00 Partly Cloudy SCT055 80.6 53.6 39% 80 30.13 0.0
12 13:55 S 6 10.00 Partly Cloudy SCT055 80.6 55.4 42% 81 30.13 0.0
12 13:35 Calm 10.00 Fair CLR 80.6 55.4 42% 81 30.14 0.0
12 13:15 Calm 10.00 Fair CLR 80.6 53.6 39% 80 30.15 0.0
12 12:55 Calm 10.00 Fair CLR 80.6 55.4 42% 81 30.15 0.0
12 12:35 Calm 10.00 Fair CLR 80.6 55.4 42% 81 30.15 0.0
12 12:15 S 3 10.00 Fair CLR 80.6 59 48% 81 30.15 0.0
Date Time (cdt) Wind (mph) Vis. (mi.) Weather Sky Cond. Air Dwpt Max. Min. Relative Humidity Wind Chill (°F) Heat Index (°F) altimeter (in) sea level (mb) 1 hr 3 hr 6 hr
6 hour
Temperature (ºF) Pressure Precipitation (in)